QPF
0.01 0.01 0.03 0.04 0.06 0.07 0.05 0.03 0.02 0.01 0.01 0.00 0.00 0.01 0.01 0.03 0.04 0.06 0.05 0.06 0.04 0.03 0.06 0.06 0.05 0.06 0.06 0.05 0.04 0.04 0.06 0.08 0.08 0.07 0.07 0.08 0.08 0.08 0.08 0.08 0.11 0.10 0.07 0.08 0.09 0.08 0.10 0.13 0.12
0.01 0.01 0.03 0.05 0.09 0.07 0.04 0.03 0.02 0.01 0.01 0.00 0.00 0.00 0.01 0.01 0.02 0.03 0.04 0.03 0.02 0.03 0.07 0.07 0.05 0.05 0.05 0.05 0.04 0.04 0.06 0.08 0.09 0.07 0.05 0.05 0.07 0.11 0.15 0.12 0.12 0.10 0.08 0.08 0.08 0.08 0.08 0.10 0.12
0.01 0.01 0.04 0.06 0.06 0.06 0.04 0.02 0.01 0.00 0.00 0.00 0.00 0.00 0.00 0.01 0.02 0.03 0.03 0.02 0.01 0.02 0.06 0.08 0.06 0.05 0.05 0.05 0.04 0.06 0.06 0.08 0.10 0.08 0.07 0.07 0.09 0.12 0.20 0.23 0.15 0.12 0.09 0.07 0.08 0.10 0.10 0.09 0.09
0.01 0.02 0.03 0.06 0.05 0.03 0.03 0.01 0.00 0.00 0.00 0.00 0.00 0.01 0.00 0.01 0.02 0.03 0.02 0.01 0.01 0.02 0.03 0.06 0.07 0.05 0.05 0.06 0.08 0.09 0.08 0.10 0.12 0.11 0.11 0.10 0.10 0.10 0.18 0.24 0.19 0.15 0.12 0.10 0.09 0.10 0.10 0.10 0.08
0.02 0.04 0.05 0.05 0.03 0.01 0.01 0.00 0.00 0.00 0.00 0.00 0.00 0.01 0.01 0.01 0.02 0.02 0.01 0.01 0.00 0.00 0.01 0.02 0.03 0.03 0.03 0.04 0.06 0.08 0.08 0.10 0.09 0.10 0.10 0.08 0.07 0.07 0.12 0.20 0.22 0.21 0.19 0.15 0.12 0.11 0.10 0.11 0.08
0.03 0.04 0.06 0.05 0.02 0.01 0.00 0.00 0.00 0.00 0.00 0.00 0.00 0.01 0.02 0.01 0.01 0.01 0.00 0.01 0.00 0.00 0.00 0.01 0.02 0.02 0.02 0.02 0.04 0.06 0.06 0.07 0.06 0.08 0.07 0.08 0.08 0.08 0.11 0.17 0.18 0.14 0.12 0.11 0.11 0.10 0.11 0.10 0.07
0.03 0.04 0.05 0.04 0.02 0.00 0.00 0.00 0.00 0.00 0.00 0.00 0.00 0.01 0.02 0.01 0.01 0.00 0.00 0.00 0.00 0.00 0.00 0.01 0.02 0.03 0.03 0.03 0.03 0.04 0.04 0.05 0.04 0.05 0.06 0.06 0.06 0.06 0.08 0.11 0.11 0.09 0.08 0.08 0.08 0.10 0.11 0.10 0.08
0.02 0.02 0.02 0.02 0.01 0.00 0.00 0.00 0.00 0.00 0.00 0.00 0.00 0.00 0.02 0.01 0.00 0.00 0.00 0.00 0.00 0.00 0.00 0.01 0.02 0.03 0.04 0.03 0.02 0.03 0.03 0.04 0.03 0.02 0.02 0.03 0.04 0.05 0.06 0.07 0.07 0.07 0.07 0.08 0.09 0.10 0.10 0.09 0.06
0.01 0.02 0.02 0.01 0.01 0.00 0.00 0.00 0.00 0.00 0.00 0.00 0.00 0.00 0.00 0.00 0.00 0.01 0.02 0.02 0.01 0.00 0.00 0.00 0.01 0.02 0.02 0.03 0.02 0.02 0.04 0.04 0.02 0.03 0.04 0.06 0.07 0.06 0.06 0.05 0.05 0.05 0.07 0.09 0.08 0.06 0.09 0.08 0.05
0.01 0.02 0.01 0.00 0.00 0.00 0.00 0.00 0.00 0.00 0.00 0.00 0.00 0.00 0.00 0.00 0.00 0.00 0.02 0.02 0.01 0.00 0.01 0.01 0.00 0.00 0.01 0.02 0.02 0.01 0.01 0.02 0.02 0.03 0.03 0.04 0.05 0.05 0.03 0.03 0.04 0.03 0.02 0.03 0.04 0.04 0.06 0.06 0.05
0.01 0.03 0.01 0.00 0.00 0.00 0.00 0.00 0.00 0.00 0.01 0.00 0.00 0.00 0.00 0.00 0.00 0.00 0.01 0.01 0.00 0.00 0.01 0.00 0.00 0.00 0.01 0.03 0.03 0.02 0.02 0.03 0.03 0.03 0.03 0.03 0.03 0.03 0.03 0.03 0.05 0.04 0.03 0.03 0.03 0.02 0.03 0.03 0.03
0.01 0.01 0.00 0.00 0.00 0.00 0.00 0.00 0.00 0.00 0.00 0.00 0.00 0.00 0.00 0.00 0.00 0.00 0.00 0.00 0.00 0.00 0.01 0.00 0.00 0.01 0.01 0.00 0.01 0.01 0.01 0.02 0.03 0.02 0.02 0.02 0.03 0.03 0.03 0.03 0.04 0.05 0.05 0.03 0.03 0.02 0.01 0.01 0.02
0.00 0.00 0.00 0.00 0.00 0.00 0.00 0.00 0.00 0.00 0.00 0.00 0.00 0.00 0.00 0.00 0.00 0.00 0.00 0.00 0.00 0.00 0.01 0.01 0.01 0.01 0.00 0.00 0.00 0.00 0.00 0.01 0.03 0.02 0.01 0.01 0.02 0.02 0.02 0.02 0.02 0.02 0.02 0.02 0.03 0.04 0.02 0.02 0.02
0.01 0.00 0.00 0.00 0.00 0.00 0.00 0.00 0.00 0.00 0.00 0.00 0.00 0.00 0.00 0.00 0.00 0.00 0.00 0.00 0.00 0.00 0.00 0.01 0.00 0.01 0.01 0.01 0.00 0.00 0.00 0.00 0.02 0.01 0.00 0.01 0.01 0.00 0.01 0.01 0.01 0.01 0.02 0.03 0.06 0.07 0.06 0.05 0.05
0.01 0.02 0.01 0.00 0.00 0.00 0.00 0.00 0.00 0.00 0.00 0.00 0.00 0.01 0.00 0.00 0.00 0.00 0.00 0.00 0.00 0.00 0.00 0.01 0.01 0.01 0.00 0.00 0.00 0.00 0.00 0.00 0.01 0.00 0.00 0.01 0.01 0.00 0.00 0.01 0.01 0.01 0.02 0.06 0.10 0.16 0.15 0.12 0.08
0.02 0.02 0.02 0.01 0.00 0.00 0.00 0.00 0.00 0.00 0.00 0.00 0.00 0.00 0.00 0.00 0.00 0.00 0.00 0.00 0.00 0.00 0.00 0.01 0.01 0.00 0.00 0.00 0.00 0.00 0.00 0.01 0.01 0.00 0.00 0.01 0.01 0.00 0.00 0.01 0.01 0.01 0.05 0.07 0.10 0.15 0.16 0.13 0.09
0.02 0.03 0.02 0.01 0.00 0.00 0.00 0.00 0.00 0.00 0.00 0.00 0.00 0.00 0.00 0.00 0.01 0.00 0.00 0.00 0.00 0.01 0.01 0.00 0.00 0.00 0.00 0.00 0.00 0.00 0.00 0.01 0.01 0.01 0.01 0.00 0.00 0.00 0.00 0.00 0.01 0.03 0.08 0.07 0.07 0.09 0.12 0.12 0.09
0.02 0.02 0.03 0.01 0.01 0.00 0.00 0.00 0.00 0.00 0.00 0.00 0.00 0.00 0.00 0.00 0.00 0.00 0.00 0.00 0.00 0.02 0.01 0.01 0.01 0.01 0.01 0.01 0.00 0.01 0.01 0.01 0.01 0.00 0.00 0.00 0.00 0.01 0.02 0.02 0.03 0.06 0.09 0.06 0.05 0.06 0.08 0.10 0.08
0.02 0.02 0.02 0.02 0.01 0.01 0.01 0.00 0.00 0.00 0.00 0.00 0.00 0.00 0.00 0.00 0.00 0.00 0.00 0.00 0.00 0.01 0.01 0.02 0.02 0.02 0.03 0.02 0.01 0.01 0.01 0.01 0.01 0.00 0.00 0.00 0.00 0.01 0.03 0.04 0.07 0.08 0.07 0.05 0.03 0.04 0.05 0.06 0.05
0.02 0.03 0.03 0.03 0.02 0.01 0.01 0.01 0.00 0.00 0.00 0.00 0.00 0.00 0.00 0.00 0.00 0.00 0.00 0.00 0.00 0.00 0.01 0.02 0.02 0.02 0.03 0.03 0.02 0.01 0.01 0.01 0.01 0.01 0.00 0.00 0.00 0.00 0.01 0.05 0.08 0.07 0.05 0.04 0.04 0.04 0.03 0.03 0.03
0.02 0.03 0.04 0.03 0.02 0.02 0.02 0.02 0.01 0.00 0.00 0.00 0.00 0.00 0.00 0.00 0.00 0.00 0.00 0.00 0.00 0.00 0.00 0.00 0.00 0.00 0.01 0.01 0.01 0.01 0.01 0.01 0.01 0.01 0.01 0.00 0.00 0.00 0.01 0.02 0.06 0.07 0.06 0.04 0.04 0.04 0.04 0.05 0.05
0.04 0.03 0.03 0.04 0.04 0.04 0.03 0.04 0.02 0.00 0.00 0.00 0.00 0.00 0.00 0.00 0.00 0.00 0.00 0.00 0.00 0.00 0.00 0.00 0.00 0.00 0.00 0.00 0.01 0.01 0.01 0.01 0.01 0.01 0.01 0.01 0.00 0.00 0.00 0.01 0.04 0.07 0.06 0.05 0.02 0.02 0.04 0.05 0.04
0.03 0.03 0.03 0.03 0.04 0.04 0.03 0.02 0.01 0.01 0.01 0.00 0.00 0.00 0.00 0.00 0.00 0.00 0.00 0.00 0.00 0.00 0.00 0.00 0.00 0.00 0.00 0.00 0.00 0.00 0.01 0.00 0.00 0.01 0.01 0.01 0.01 0.01 0.00 0.02 0.03 0.06 0.07 0.05 0.03 0.02 0.02 0.02 0.02
0.02 0.03 0.03 0.03 0.03 0.03 0.02 0.01 0.01 0.01 0.01 0.01 0.01 0.00 0.00 0.00 0.00 0.00 0.00 0.00 0.00 0.00 0.00 0.00 0.00 0.01 0.01 0.01 0.01 0.01 0.00 0.00 0.00 0.01 0.02 0.02 0.02 0.01 0.01 0.02 0.03 0.04 0.06 0.05 0.03 0.02 0.02 0.02 0.03
0.02 0.04 0.05 0.05 0.04 0.03 0.02 0.01 0.00 0.00 0.00 0.01 0.02 0.01 0.00 0.00 0.00 0.00 0.00 0.00 0.00 0.00 0.00 0.01 0.01 0.01 0.01 0.01 0.01 0.01 0.01 0.01 0.00 0.01 0.01 0.02 0.02 0.01 0.01 0.01 0.02 0.02 0.04 0.04 0.03 0.03 0.02 0.03 0.04
0.02 0.03 0.05 0.05 0.04 0.02 0.01 0.01 0.00 0.00 0.00 0.00 0.00 0.00 0.00 0.00 0.00 0.00 0.00 0.00 0.00 0.00 0.00 0.01 0.00 0.00 0.00 0.00 0.01 0.00 0.00 0.00 0.00 0.00 0.01 0.01 0.01 0.01 0.01 0.01 0.01 0.02 0.02 0.03 0.03 0.03 0.03 0.03 0.03
0.01 0.01 0.02 0.02 0.02 0.03 0.02 0.01 0.01 0.00 0.00 0.00 0.00 0.00 0.00 0.01 0.00 0.00 0.00 0.00 0.00 0.00 0.00 0.00 0.00 0.00 0.00 0.00 0.00 0.00 0.00 0.00 0.01 0.00 0.00 0.01 0.01 0.01 0.01 0.01 0.00 0.01 0.01 0.02 0.03 0.04 0.02 0.02 0.02
0.01 0.01 0.01 0.02 0.02 0.02 0.02 0.02 0.02 0.01 0.00 0.00 0.01 0.01 0.01 0.01 0.00 0.00 0.00 0.00 0.00 0.00 0.00 0.00 0.00 0.00 0.00 0.00 0.00 0.00 0.00 0.00 0.00 0.01 0.01 0.01 0.01 0.01 0.01 0.01 0.01 0.00 0.00 0.01 0.03 0.03 0.03 0.03 0.02
0.02 0.01 0.02 0.02 0.01 0.02 0.02 0.02 0.01 0.01 0.00 0.01 0.01 0.01 0.01 0.01 0.01 0.00 0.00 0.00 0.01 0.01 0.01 0.00 0.00 0.00 0.00 0.00 0.00 0.00 0.00 0.00 0.00 0.01 0.01 0.01 0.01 0.01 0.01 0.01 0.01 0.01 0.01 0.01 0.02 0.03 0.03 0.03 0.02
0.01 0.01 0.01 0.03 0.03 0.02 0.02 0.01 0.01 0.01 0.00 0.00 0.00 0.00 0.00 0.00 0.00 0.00 0.00 0.01 0.01 0.01 0.01 0.00 0.00 0.00 0.00 0.00 0.00 0.00 0.00 0.00 0.00 0.00 0.01 0.01 0.01 0.01 0.01 0.00 0.00 0.01 0.02 0.01 0.01 0.02 0.02 0.02 0.02
MSLP
1007.12 1007.81 1008.75 1009.81 1010.83 1011.68 1012.25 1012.51 1012.48 1012.23 1011.90 1011.59 1011.38 1011.28 1011.28 1011.29 1011.24 1011.07 1010.75 1010.33 1009.88 1009.49 1009.26 1009.23 1009.41 1009.76 1010.16 1010.52 1010.76 1010.82 1010.71 1010.46 1010.16 1009.90 1009.73 1009.68 1009.77 1009.93 1010.13 1010.32 1010.46 1010.56 1010.63 1010.70 1010.81 1010.97 1011.19 1011.44 1011.68
1007.56 1008.42 1009.47 1010.56 1011.54 1012.27 1012.67 1012.72 1012.48 1012.04 1011.56 1011.14 1010.87 1010.75 1010.74 1010.77 1010.74 1010.59 1010.30 1009.91 1009.51 1009.19 1009.04 1009.09 1009.36 1009.77 1010.23 1010.62 1010.86 1010.92 1010.79 1010.52 1010.20 1009.92 1009.74 1009.68 1009.73 1009.86 1010.01 1010.15 1010.24 1010.31 1010.37 1010.47 1010.62 1010.85 1011.15 1011.48 1011.78
1008.13 1009.13 1010.25 1011.34 1012.24 1012.82 1013.02 1012.86 1012.40 1011.79 1011.17 1010.66 1010.33 1010.18 1010.16 1010.19 1010.16 1010.03 1009.78 1009.44 1009.11 1008.87 1008.81 1008.96 1009.31 1009.79 1010.28 1010.69 1010.93 1010.97 1010.82 1010.54 1010.21 1009.92 1009.72 1009.63 1009.64 1009.72 1009.81 1009.89 1009.93 1009.96 1010.02 1010.14 1010.35 1010.66 1011.05 1011.46 1011.84
1008.79 1009.89 1011.04 1012.09 1012.87 1013.29 1013.30 1012.93 1012.30 1011.55 1010.82 1010.24 1009.86 1009.69 1009.65 1009.66 1009.63 1009.51 1009.27 1008.99 1008.72 1008.57 1008.60 1008.84 1009.27 1009.79 1010.31 1010.72 1010.95 1010.96 1010.79 1010.49 1010.15 1009.85 1009.64 1009.53 1009.51 1009.53 1009.57 1009.57 1009.57 1009.57 1009.62 1009.76 1010.03 1010.41 1010.88 1011.38 1011.83
1009.45 1010.61 1011.75 1012.72 1013.37 1013.63 1013.47 1012.95 1012.20 1011.35 1010.57 1009.96 1009.57 1009.37 1009.31 1009.30 1009.24 1009.10 1008.88 1008.62 1008.41 1008.34 1008.45 1008.76 1009.24 1009.78 1010.30 1010.68 1010.87 1010.85 1010.65 1010.34 1010.00 1009.70 1009.49 1009.38 1009.34 1009.32 1009.31 1009.27 1009.22 1009.19 1009.24 1009.40 1009.71 1010.15 1010.68 1011.23 1011.74
1010.05 1011.21 1012.30 1013.16 1013.67 1013.78 1013.49 1012.89 1012.08 1011.22 1010.45 1009.86 1009.48 1009.28 1009.20 1009.15 1009.05 1008.88 1008.64 1008.40 1008.23 1008.20 1008.37 1008.72 1009.22 1009.76 1010.24 1010.58 1010.72 1010.65 1010.42 1010.10 1009.77 1009.49 1009.31 1009.21 1009.16 1009.14 1009.10 1009.03 1008.95 1008.91 1008.95 1009.12 1009.45 1009.91 1010.46 1011.05 1011.58
1010.52 1011.63 1012.61 1013.34 1013.72 1013.71 1013.34 1012.70 1011.91 1011.11 1010.42 1009.90 1009.57 1009.40 1009.30 1009.21 1009.07 1008.85 1008.59 1008.33 1008.17 1008.17 1008.36 1008.73 1009.22 1009.72 1010.15 1010.42 1010.50 1010.38 1010.13 1009.81 1009.50 1009.26 1009.12 1009.06 1009.04 1009.04 1009.00 1008.93 1008.84 1008.79 1008.82 1008.99 1009.30 1009.75 1010.29 1010.86 1011.38
1010.82 1011.83 1012.67 1013.25 1013.50 1013.41 1013.00 1012.39 1011.67 1010.99 1010.42 1010.01 1009.77 1009.64 1009.55 1009.43 1009.24 1008.98 1008.67 1008.41 1008.24 1008.25 1008.44 1008.79 1009.24 1009.69 1010.05 1010.25 1010.26 1010.11 1009.84 1009.53 1009.26 1009.07 1008.99 1008.98 1009.02 1009.05 1009.04 1008.99 1008.91 1008.86 1008.88 1009.02 1009.30 1009.71 1010.20 1010.72 1011.19
1010.96 1011.82 1012.51 1012.93 1013.06 1012.89 1012.49 1011.93 1011.34 1010.80 1010.39 1010.13 1009.99 1009.92 1009.85 1009.71 1009.49 1009.19 1008.85 1008.57 1008.40 1008.39 1008.57 1008.89 1009.29 1009.68 1009.97 1010.10 1010.06 1009.87 1009.60 1009.32 1009.10 1008.98 1008.96 1009.03 1009.13 1009.21 1009.25 1009.22 1009.16 1009.12 1009.13 1009.24 1009.47 1009.81 1010.23 1010.67 1011.07
1010.96 1011.67 1012.18 1012.45 1012.46 1012.24 1011.86 1011.39 1010.92 1010.55 1010.30 1010.18 1010.15 1010.15 1010.10 1009.97 1009.73 1009.41 1009.07 1008.77 1008.60 1008.58 1008.74 1009.03 1009.38 1009.70 1009.93 1010.00 1009.93 1009.73 1009.48 1009.24 1009.07 1009.02 1009.07 1009.21 1009.37 1009.51 1009.59 1009.60 1009.57 1009.53 1009.53 1009.61 1009.79 1010.05 1010.39 1010.74 1011.07
1010.90 1011.44 1011.78 1011.90 1011.82 1011.56 1011.19 1010.80 1010.47 1010.24 1010.14 1010.14 1010.21 1010.26 1010.25 1010.14 1009.91 1009.59 1009.26 1008.98 1008.81 1008.80 1008.94 1009.20 1009.50 1009.77 1009.95 1009.99 1009.90 1009.72 1009.50 1009.30 1009.20 1009.21 1009.32 1009.51 1009.72 1009.90 1010.02 1010.07 1010.06 1010.03 1010.03 1010.08 1010.21 1010.41 1010.66 1010.93 1011.20
1010.82 1011.21 1011.40 1011.40 1011.22 1010.93 1010.59 1010.27 1010.03 1009.91 1009.91 1010.00 1010.13 1010.24 1010.27 1010.18 1009.98 1009.70 1009.41 1009.16 1009.02 1009.02 1009.15 1009.39 1009.65 1009.89 1010.04 1010.07 1009.99 1009.83 1009.65 1009.51 1009.46 1009.51 1009.67 1009.89 1010.12 1010.33 1010.48 1010.55 1010.57 1010.55 1010.55 1010.58 1010.68 1010.83 1011.02 1011.24 1011.45
1010.81 1011.06 1011.12 1011.02 1010.78 1010.46 1010.13 1009.85 1009.67 1009.60 1009.66 1009.79 1009.96 1010.09 1010.15 1010.10 1009.96 1009.74 1009.51 1009.32 1009.22 1009.24 1009.38 1009.59 1009.84 1010.05 1010.18 1010.22 1010.16 1010.04 1009.92 1009.83 1009.82 1009.90 1010.07 1010.30 1010.53 1010.75 1010.90 1010.99 1011.03 1011.03 1011.04 1011.07 1011.14 1011.26 1011.42 1011.60 1011.78
1010.88 1011.03 1011.00 1010.82 1010.54 1010.20 1009.87 1009.60 1009.42 1009.37 1009.42 1009.55 1009.71 1009.85 1009.93 1009.94 1009.86 1009.72 1009.58 1009.47 1009.42 1009.47 1009.61 1009.81 1010.03 1010.22 1010.36 1010.41 1010.39 1010.32 1010.25 1010.20 1010.22 1010.32 1010.48 1010.68 1010.90 1011.10 1011.25 1011.35 1011.40 1011.42 1011.45 1011.48 1011.55 1011.66 1011.80 1011.97 1012.15
1011.04 1011.12 1011.03 1010.81 1010.50 1010.15 1009.81 1009.52 1009.31 1009.22 1009.22 1009.30 1009.42 1009.55 1009.66 1009.72 1009.73 1009.70 1009.65 1009.62 1009.64 1009.72 1009.85 1010.03 1010.23 1010.41 1010.54 1010.61 1010.63 1010.62 1010.59 1010.58 1010.62 1010.70 1010.84 1011.01 1011.19 1011.36 1011.50 1011.60 1011.67 1011.72 1011.77 1011.82 1011.90 1012.00 1012.14 1012.31 1012.49
1011.27 1011.29 1011.16 1010.93 1010.61 1010.26 1009.90 1009.57 1009.31 1009.13 1009.05 1009.05 1009.12 1009.24 1009.37 1009.50 1009.61 1009.69 1009.75 1009.81 1009.88 1009.98 1010.11 1010.26 1010.42 1010.58 1010.71 1010.80 1010.87 1010.90 1010.91 1010.93 1010.97 1011.04 1011.14 1011.26 1011.40 1011.54 1011.67 1011.78 1011.87 1011.95 1012.02 1012.09 1012.18 1012.29 1012.42 1012.58 1012.77
1011.50 1011.48 1011.35 1011.12 1010.82 1010.47 1010.09 1009.71 1009.37 1009.09 1008.90 1008.81 1008.82 1008.92 1009.09 1009.29 1009.51 1009.71 1009.88 1010.03 1010.15 1010.26 1010.37 1010.48 1010.60 1010.73 1010.86 1010.97 1011.07 1011.14 1011.20 1011.24 1011.28 1011.32 1011.38 1011.45 1011.55 1011.66 1011.77 1011.90 1012.02 1012.13 1012.23 1012.33 1012.42 1012.52 1012.64 1012.79 1012.97
1011.68 1011.64 1011.52 1011.32 1011.05 1010.71 1010.31 1009.88 1009.45 1009.06 1008.76 1008.57 1008.52 1008.61 1008.81 1009.10 1009.43 1009.76 1010.05 1010.28 1010.44 1010.55 1010.63 1010.70 1010.77 1010.87 1010.98 1011.11 1011.24 1011.36 1011.45 1011.51 1011.54 1011.56 1011.57 1011.60 1011.65 1011.74 1011.86 1012.00 1012.15 1012.30 1012.43 1012.55 1012.65 1012.73 1012.83 1012.95 1013.10
1011.75 1011.72 1011.63 1011.48 1011.26 1010.94 1010.53 1010.05 1009.52 1009.02 1008.60 1008.32 1008.21 1008.29 1008.55 1008.93 1009.37 1009.83 1010.22 1010.53 1010.73 1010.84 1010.88 1010.90 1010.92 1010.99 1011.09 1011.23 1011.40 1011.55 1011.67 1011.75 1011.78 1011.77 1011.74 1011.72 1011.74 1011.81 1011.92 1012.09 1012.28 1012.47 1012.64 1012.77 1012.87 1012.94 1013.00 1013.08 1013.20
1011.70 1011.69 1011.67 1011.60 1011.44 1011.16 1010.74 1010.21 1009.59 1008.97 1008.44 1008.07 1007.91 1007.98 1008.28 1008.75 1009.32 1009.89 1010.38 1010.76 1010.99 1011.10 1011.11 1011.08 1011.06 1011.09 1011.20 1011.36 1011.55 1011.74 1011.89 1011.98 1012.00 1011.96 1011.89 1011.83 1011.81 1011.86 1011.98 1012.17 1012.40 1012.62 1012.83 1012.98 1013.08 1013.13 1013.16 1013.20 1013.27
1011.53 1011.59 1011.65 1011.68 1011.61 1011.38 1010.97 1010.38 1009.68 1008.96 1008.31 1007.84 1007.62 1007.69 1008.03 1008.58 1009.24 1009.92 1010.51 1010.95 1011.21 1011.31 1011.30 1011.23 1011.18 1011.20 1011.30 1011.48 1011.70 1011.93 1012.11 1012.21 1012.21 1012.14 1012.03 1011.92 1011.87 1011.89 1012.01 1012.22 1012.47 1012.73 1012.97 1013.14 1013.25 1013.29 1013.30 1013.30 1013.34
1011.30 1011.45 1011.65 1011.80 1011.82 1011.65 1011.25 1010.63 1009.84 1009.01 1008.24 1007.68 1007.40 1007.45 1007.80 1008.41 1009.15 1009.91 1010.57 1011.07 1011.36 1011.47 1011.44 1011.35 1011.29 1011.29 1011.41 1011.61 1011.86 1012.12 1012.32 1012.42 1012.41 1012.31 1012.15 1011.99 1011.89 1011.89 1011.99 1012.20 1012.47 1012.76 1013.02 1013.22 1013.33 1013.38 1013.38 1013.37 1013.38
1011.08 1011.36 1011.70 1011.99 1012.13 1012.02 1011.63 1010.97 1010.10 1009.16 1008.28 1007.61 1007.25 1007.25 1007.61 1008.24 1009.04 1009.86 1010.58 1011.12 1011.44 1011.56 1011.53 1011.44 1011.37 1011.38 1011.51 1011.73 1012.02 1012.30 1012.51 1012.61 1012.58 1012.44 1012.24 1012.03 1011.88 1011.83 1011.91 1012.11 1012.38 1012.68 1012.96 1013.17 1013.31 1013.36 1013.37 1013.36 1013.38
1010.94 1011.37 1011.86 1012.30 1012.54 1012.50 1012.12 1011.41 1010.47 1009.41 1008.42 1007.64 1007.19 1007.13 1007.46 1008.09 1008.91 1009.77 1010.53 1011.11 1011.46 1011.60 1011.58 1011.49 1011.43 1011.45 1011.60 1011.84 1012.15 1012.45 1012.67 1012.77 1012.72 1012.55 1012.30 1012.04 1011.84 1011.75 1011.79 1011.96 1012.22 1012.51 1012.79 1013.01 1013.15 1013.22 1013.24 1013.26 1013.29
1010.93 1011.51 1012.15 1012.70 1013.04 1013.04 1012.66 1011.92 1010.90 1009.74 1008.64 1007.75 1007.21 1007.08 1007.35 1007.96 1008.78 1009.65 1010.43 1011.03 1011.41 1011.57 1011.58 1011.51 1011.47 1011.51 1011.67 1011.93 1012.25 1012.56 1012.79 1012.89 1012.83 1012.63 1012.35 1012.06 1011.82 1011.68 1011.68 1011.81 1012.03 1012.30 1012.56 1012.77 1012.91 1012.98 1013.02 1013.05 1013.12
1011.08 1011.77 1012.51 1013.15 1013.54 1013.57 1013.18 1012.40 1011.31 1010.08 1008.88 1007.90 1007.27 1007.06 1007.28 1007.84 1008.63 1009.49 1010.28 1010.91 1011.31 1011.50 1011.54 1011.50 1011.48 1011.54 1011.72 1012.00 1012.33 1012.64 1012.88 1012.97 1012.91 1012.71 1012.42 1012.11 1011.84 1011.68 1011.64 1011.72 1011.90 1012.12 1012.34 1012.52 1012.64 1012.70 1012.74 1012.79 1012.88
1011.35 1012.10 1012.89 1013.55 1013.95 1013.97 1013.57 1012.75 1011.62 1010.33 1009.07 1008.02 1007.32 1007.05 1007.21 1007.72 1008.47 1009.31 1010.10 1010.73 1011.16 1011.39 1011.46 1011.46 1011.47 1011.56 1011.76 1012.04 1012.37 1012.70 1012.94 1013.04 1013.00 1012.82 1012.55 1012.25 1011.99 1011.81 1011.74 1011.79 1011.92 1012.08 1012.24 1012.36 1012.43 1012.46 1012.48 1012.53 1012.62
1011.70 1012.43 1013.18 1013.80 1014.16 1014.14 1013.70 1012.85 1011.71 1010.40 1009.13 1008.06 1007.33 1007.02 1007.12 1007.59 1008.29 1009.10 1009.88 1010.51 1010.96 1011.23 1011.35 1011.39 1011.45 1011.57 1011.78 1012.07 1012.41 1012.74 1012.99 1013.12 1013.12 1012.98 1012.76 1012.50 1012.28 1012.12 1012.05 1012.07 1012.15 1012.25 1012.35 1012.39 1012.40 1012.37 1012.34 1012.36 1012.44
1012.04 1012.66 1013.30 1013.81 1014.07 1013.98 1013.50 1012.66 1011.53 1010.26 1009.03 1007.99 1007.27 1006.95 1007.03 1007.44 1008.10 1008.86 1009.61 1010.24 1010.71 1011.01 1011.18 1011.28 1011.39 1011.55 1011.79 1012.10 1012.45 1012.80 1013.07 1013.24 1013.28 1013.21 1013.07 1012.89 1012.72 1012.61 1012.57 1012.59 1012.64 1012.69 1012.71 1012.68 1012.61 1012.51 1012.42 1012.38 1012.42
1012.31 1012.75 1013.20 1013.54 1013.67 1013.50 1013.00 1012.17 1011.11 1009.93 1008.79 1007.84 1007.17 1006.87 1006.93 1007.30 1007.90 1008.60 1009.30 1009.91 1010.38 1010.72 1010.94 1011.11 1011.28 1011.49 1011.78 1012.12 1012.50 1012.87 1013.18 1013.39 1013.50 1013.51 1013.46 1013.38 1013.30 1013.27 1013.27 1013.31 1013.35 1013.36 1013.33 1013.24 1013.09 1012.91 1012.75 1012.65 1012.64
Thickness
5808 5811 5810 5797 5775 5761 5756 5765 5774 5773 5776 5783 5786 5782 5770 5762 5753 5742 5762 5773 5774 5772 5769 5767 5766 5766 5766 5766 5766 5766 5765 5765 5765 5765 5765 5765 5765 5766 5766 5767 5767 5766 5765 5765 5765 5765 5765 5764 5764
5810 5812 5802 5786 5762 5748 5752 5767 5768 5773 5780 5787 5786 5782 5771 5764 5769 5765 5767 5772 5774 5772 5768 5765 5763 5763 5763 5763 5763 5763 5762 5762 5762 5762 5762 5762 5762 5762 5763 5763 5763 5762 5762 5761 5762 5761 5761 5761 5761
5810 5810 5790 5774 5761 5753 5753 5768 5772 5779 5787 5786 5780 5779 5769 5763 5768 5767 5770 5774 5774 5770 5766 5762 5761 5761 5761 5760 5760 5760 5759 5759 5759 5759 5759 5759 5759 5759 5759 5759 5759 5759 5758 5758 5758 5758 5758 5758 5758
5807 5797 5786 5767 5757 5766 5769 5774 5779 5778 5782 5785 5780 5768 5767 5773 5772 5772 5775 5776 5772 5768 5764 5760 5759 5758 5758 5757 5757 5756 5756 5756 5756 5756 5756 5756 5756 5756 5756 5756 5755 5755 5755 5754 5754 5754 5754 5754 5754
5804 5785 5767 5757 5761 5772 5779 5783 5783 5776 5776 5780 5776 5760 5757 5771 5777 5776 5775 5774 5770 5767 5764 5760 5757 5757 5756 5755 5754 5753 5753 5753 5753 5753 5753 5752 5752 5752 5752 5752 5751 5751 5750 5750 5750 5750 5750 5750 5750
5788 5781 5757 5749 5759 5771 5779 5786 5783 5776 5774 5776 5772 5760 5756 5771 5772 5773 5774 5772 5771 5767 5763 5759 5757 5755 5754 5752 5751 5750 5750 5750 5750 5750 5749 5749 5749 5749 5749 5748 5748 5747 5747 5746 5746 5746 5746 5746 5746
5781 5771 5757 5757 5757 5762 5774 5784 5778 5773 5771 5774 5776 5759 5757 5766 5771 5774 5773 5771 5770 5768 5764 5760 5756 5754 5752 5750 5749 5748 5748 5747 5747 5747 5746 5746 5746 5745 5745 5744 5744 5743 5743 5742 5742 5742 5742 5742 5743
5792 5775 5761 5759 5755 5758 5776 5781 5781 5775 5771 5782 5780 5759 5753 5764 5773 5773 5771 5769 5768 5766 5764 5761 5757 5754 5751 5749 5748 5747 5746 5745 5745 5744 5743 5743 5743 5742 5741 5741 5740 5739 5739 5739 5739 5739 5739 5739 5739
5796 5768 5753 5757 5757 5762 5776 5774 5778 5784 5777 5776 5777 5771 5768 5772 5773 5768 5765 5764 5763 5763 5762 5761 5758 5755 5752 5749 5747 5745 5744 5743 5742 5742 5741 5740 5740 5739 5738 5737 5736 5736 5735 5735 5735 5735 5735 5735 5736
5784 5757 5759 5772 5773 5771 5774 5773 5775 5773 5766 5766 5767 5771 5773 5771 5767 5763 5759 5757 5757 5758 5759 5760 5758 5756 5753 5750 5747 5745 5744 5742 5741 5741 5740 5739 5738 5737 5735 5734 5733 5733 5732 5732 5732 5732 5732 5732 5732
5780 5764 5771 5777 5781 5778 5774 5773 5778 5767 5757 5762 5762 5764 5768 5766 5764 5762 5760 5758 5757 5758 5758 5759 5757 5755 5752 5749 5746 5744 5743 5741 5740 5739 5738 5737 5736 5734 5733 5731 5730 5730 5729 5729 5729 5729 5729 5729 5729
5776 5775 5777 5777 5780 5777 5773 5773 5770 5766 5765 5774 5773 5770 5767 5764 5763 5762 5760 5759 5759 5757 5756 5756 5756 5754 5751 5748 5745 5743 5741 5739 5738 5737 5736 5735 5733 5732 5731 5730 5729 5727 5726 5725 5726 5726 5726 5726 5726
5773 5773 5778 5779 5779 5777 5774 5769 5767 5766 5775 5778 5775 5770 5767 5765 5764 5764 5764 5762 5759 5755 5754 5754 5754 5751 5749 5746 5744 5742 5740 5738 5736 5734 5734 5732 5731 5729 5729 5727 5726 5725 5724 5722 5722 5722 5721 5721 5720
5776 5775 5775 5777 5776 5776 5769 5767 5766 5766 5776 5773 5769 5766 5766 5765 5764 5762 5761 5759 5757 5755 5754 5753 5752 5751 5748 5745 5743 5741 5739 5736 5734 5733 5732 5730 5729 5727 5726 5724 5723 5722 5721 5720 5719 5718 5717 5715 5715
5780 5768 5767 5771 5773 5773 5768 5755 5761 5770 5774 5769 5766 5764 5764 5765 5765 5762 5761 5760 5759 5756 5755 5752 5751 5749 5746 5743 5741 5739 5737 5735 5732 5730 5730 5728 5727 5725 5723 5721 5720 5719 5718 5717 5715 5714 5713 5711 5709
5772 5760 5748 5762 5770 5771 5758 5740 5762 5773 5770 5765 5765 5764 5762 5764 5765 5765 5764 5762 5760 5758 5754 5752 5751 5747 5744 5741 5739 5737 5735 5732 5730 5728 5727 5725 5724 5723 5720 5718 5717 5715 5714 5712 5711 5710 5707 5705 5703
5757 5748 5747 5754 5768 5768 5758 5746 5762 5773 5769 5763 5764 5763 5761 5761 5763 5764 5764 5762 5760 5757 5754 5751 5749 5745 5742 5739 5737 5735 5732 5729 5727 5725 5723 5722 5721 5720 5717 5715 5714 5712 5710 5708 5707 5705 5703 5700 5698
5746 5750 5751 5750 5763 5763 5754 5753 5764 5770 5767 5764 5764 5763 5762 5760 5761 5764 5764 5762 5759 5756 5754 5750 5746 5743 5740 5737 5735 5731 5729 5726 5724 5722 5720 5719 5718 5716 5714 5713 5711 5709 5706 5703 5701 5699 5698 5696 5695
5758 5753 5750 5756 5767 5760 5753 5754 5762 5767 5765 5763 5763 5763 5762 5762 5765 5765 5762 5760 5757 5754 5751 5748 5744 5741 5737 5733 5729 5725 5722 5722 5721 5720 5718 5717 5715 5713 5711 5709 5708 5705 5702 5700 5698 5695 5693 5692 5692
5756 5749 5749 5756 5765 5759 5752 5754 5764 5766 5765 5765 5765 5764 5763 5761 5761 5760 5759 5757 5753 5750 5749 5746 5743 5739 5736 5732 5729 5726 5722 5721 5719 5718 5716 5715 5713 5711 5709 5707 5704 5702 5699 5697 5695 5693 5689 5688 5689
5753 5749 5747 5747 5755 5758 5750 5745 5755 5765 5769 5768 5769 5768 5767 5763 5759 5757 5756 5753 5750 5747 5746 5745 5742 5738 5734 5731 5728 5724 5720 5717 5714 5712 5712 5712 5710 5708 5707 5704 5702 5700 5697 5694 5692 5691 5687 5683 5684
5743 5755 5753 5748 5739 5734 5743 5723 5744 5757 5758 5761 5762 5763 5763 5763 5760 5757 5754 5750 5748 5746 5745 5744 5741 5737 5733 5730 5725 5719 5713 5710 5710 5710 5709 5709 5708 5706 5704 5702 5700 5697 5695 5692 5690 5689 5686 5683 5679
5748 5757 5753 5748 5739 5733 5741 5730 5739 5755 5749 5754 5760 5761 5761 5761 5759 5754 5752 5748 5747 5745 5742 5740 5738 5734 5731 5727 5723 5718 5714 5712 5711 5710 5707 5705 5705 5704 5701 5699 5697 5695 5693 5691 5688 5686 5685 5683 5680
5757 5751 5748 5745 5735 5718 5738 5734 5732 5749 5753 5756 5759 5761 5760 5759 5756 5753 5750 5746 5743 5741 5738 5735 5732 5729 5727 5724 5721 5717 5713 5710 5707 5705 5703 5701 5700 5700 5698 5697 5695 5693 5690 5689 5687 5685 5683 5682 5680
5750 5733 5716 5714 5711 5720 5748 5740 5738 5758 5764 5761 5758 5759 5759 5757 5752 5748 5744 5741 5737 5734 5732 5730 5727 5723 5723 5720 5718 5715 5713 5710 5706 5703 5700 5697 5696 5694 5694 5694 5692 5690 5688 5686 5685 5683 5681 5680 5678
5743 5736 5712 5702 5710 5725 5742 5734 5743 5764 5767 5766 5762 5760 5757 5753 5750 5745 5742 5738 5734 5731 5729 5726 5723 5720 5719 5717 5715 5714 5712 5708 5704 5702 5700 5696 5694 5693 5693 5691 5689 5688 5686 5684 5682 5680 5680 5679 5677
5736 5736 5741 5724 5723 5718 5730 5737 5745 5760 5756 5756 5755 5753 5750 5749 5746 5742 5739 5736 5733 5729 5726 5724 5720 5717 5716 5714 5712 5710 5708 5704 5701 5700 5698 5695 5694 5692 5690 5688 5687 5685 5683 5682 5680 5677 5676 5676 5676
5744 5739 5730 5718 5705 5702 5720 5728 5726 5737 5742 5745 5745 5744 5744 5745 5743 5740 5737 5734 5731 5727 5724 5722 5718 5715 5713 5711 5709 5707 5704 5702 5699 5696 5694 5692 5691 5689 5687 5685 5683 5682 5680 5679 5676 5674 5674 5673 5672
5733 5730 5727 5722 5720 5704 5700 5713 5744 5741 5743 5741 5741 5742 5740 5740 5738 5736 5734 5732 5729 5725 5720 5718 5715 5712 5709 5707 5705 5702 5700 5698 5696 5693 5690 5689 5688 5686 5684 5682 5680 5678 5676 5675 5673 5671 5671 5670 5669
5735 5729 5723 5706 5708 5716 5706 5713 5749 5746 5745 5742 5739 5739 5740 5737 5735 5733 5730 5727 5724 5720 5716 5714 5712 5709 5706 5704 5701 5698 5697 5694 5692 5689 5687 5685 5684 5682 5680 5679 5676 5675 5672 5671 5669 5667 5667 5666 5665